Regional Weather Roundup
Issued by NWS Little Rock, AR

Home | Current Version | Previous Version | Graphics & Text | Print | Product List | Glossary On
Versions: 1 2 3 4 5 6 7 8 9 10 11 12 13 14 15 16 17 18 19 20 21 22 23 24 25 26 27 28 29 30 31 32 33 34 35 36 37 38 39 40 41 42 43 44 45 46 47 48 49 50
000
ASUS44 KLZK 240505
RWRLZK

WEATHER ROUNDUP FOR ARKANSAS
NATIONAL WEATHER SERVICE LITTLE ROCK AR
1200 AM CDT TUE MAY 24 2016

NOTE: "FAIR" INDICATES FEW OR NO CLOUDS BELOW 12,000 FEET WITH NO
SIGNIFICANT WEATHER AND/OR OBSTRUCTIONS TO VISIBILITY.

ARZ001-003-010-029-240600-
NORTHWEST ARKANSAS

CITY           SKY/WX    TMP DP  RH WIND       PRES   REMARKS
FAYETTEVILLE   FOG       57  57 100 CALM      29.95R VSB 1
FORT SMITH     CLOUDY    68  64  87 E3        29.92R
HARRISON       PTCLDY    63  60  90 S5        29.95S
BENTONVILLE    PTCLDY    63  57  82 S5        29.95S
ROGERS           N/A     62  61  96 SE6       29.95S
SILOAM SPGS    CLOUDY    63  55  77 E3        29.95R
HIGHFILL       MOCLDY    63  62  97 SE3       29.94S
$$

ARZ004-005-016-240600-
NORTH CENTRAL ARKANSAS

CITY           SKY/WX    TMP DP  RH WIND       PRES   REMARKS
BATESVILLE     MOCLDY    66  57  72 SE3       29.96R
FLIPPIN        PTCLDY   N/A N/A N/A CALM      29.92S
MTN HOME       PTCLDY    62  59  90 SE5       29.94S
$$

ARZ040-041-240600-
WEST CENTRAL ARKANSAS

CITY           SKY/WX    TMP DP  RH WIND       PRES   REMARKS
MENA           CLEAR     72  68  88 CALM      29.96R
MOUNT IDA      CLOUDY    71  63  75 CALM      29.93R
$$

ARZ009-017-025-026-028-240600-
NORTHEAST ARKANSAS

CITY           SKY/WX    TMP DP  RH WIND       PRES   REMARKS
CORNING          N/A     70  59  68 CALM      29.97R
JONESBORO      CLEAR     68  54  60 CALM      29.96R
NEWPORT        PTCLDY    70  57  63 CALM      29.96S
WALNUT RIDGE   PTCLDY    70  54  56 SE7       29.96R
BLYTHEVILLE    CLEAR     71  53  52 S5        29.98R
$$

ARZ022-023-033-042-044-240600-
CENTRAL ARKANSAS

CITY           SKY/WX    TMP DP  RH WIND       PRES   REMARKS
LITTLE ROCK    PTCLDY    68  62  81 S6        29.94F
JACKSONVILLE   PTCLDY    71  62  71 SE3       29.93F
SEARCY         PTCLDY    64  61  88 CALM      29.97R
HOT SPRINGS    CLOUDY    71  61  70 CALM      29.96R
RUSSELLVILLE   PTCLDY    65  63  93 CALM      29.94R
CLINTON        FAIR      63  63 100 CALM      29.97R
$$

ARZ036-240600-
EAST ARKANSAS

CITY           SKY/WX    TMP DP  RH WIND       PRES   REMARKS
WEST MEMPHIS   MOCLDY    68  54  60 S3        29.97R
$$

ARZ050-053-066-070-073-240600-
SOUTHWEST ARKANSAS

CITY           SKY/WX    TMP DP  RH WIND       PRES   REMARKS
ARKADELPHIA    FAIR      71  70  97 N7        29.96R
CAMDEN         CLEAR     64  59  82 SE9       29.92F
TEXARKANA      CLEAR     72  65  78 SE7       29.93F
EL DORADO      CLEAR     69  63  81 S3        29.96S
DE QUEEN       CLEAR     74  66  76 S6        29.91R
$$

ARZ056-057-069-240600-
SOUTHEAST ARKANSAS

CITY           SKY/WX    TMP DP  RH WIND       PRES   REMARKS
PINE BLUFF     PTCLDY    65  62  90 CALM      29.95F
STUTTGART      CLOUDY    72  57  60 S7        29.96F
MONTICELLO     CLEAR     71  58  63 S5        29.96F

$$





USA.gov is the U.S. government's official web portal to all federal, state and local government web resources and services.